User: anonymous   Login
Location: Alfortville
(48.8058°N, 2.4204°E)
Time: 18:34:29
(UTC+00:00)
Language:

Cosmos 44 - Orbit

View from above orbital plane
View from above orbital plane
View from above satellite
View from above satellite

Ground track
Ground track

The orbit data is extracted from the following two-line orbital elements,

1   876U 64053A   22021.30926792 -.00000058  00000-0  13712-4 0  9996
2   876  65.0611  28.8955 0137644 180.1706 179.9373 14.63839461 53706
Epoch (UTC): 21 January 2022 07:25:20
Eccentricity: 0.0137644
inclination: 65.0611°
perigee height: 583 km
apogee height: 778 km
right ascension of ascending node: 28.8955°
argument of perigee: 180.1706°
revolutions per day: 14.63839461
mean anomaly at epoch: 179.9373°
orbit number at epoch: 5370

The dashed part of the orbit path shows where the satellite is in the earth's shadow,  

DLR